Flag for Germany Weather past 2 weeks in Flensburg, Schleswig-Holstein, Germany

Now
61 °F

Sprinkles. Broken clouds.


Feels Like: 61 °F
Forecast: 55 / 60 °F
Wind: 10 mph from Southwest

Location: Soenderborg Lufthavn

Current Time: Jul 28, 2015 at 12:33:30 PM

Latest Report: Jul 28, 2015 at 11:50 AM


Visibility: 4 mi

Pressure: 29.39 "Hg

Humidity: 94%

Dew point: 59 °F

Location of FlensburgLocation

Historic Weather in Flensburg — Graph

°F

Flensburg temperature yesterday

Maximum temperature yesterday: 61 °F (at 1:51 PM)
Minimum temperature yesterday: 57 °F (at 8:50 AM)
Average temperature yesterday: 59 °F

Past Weeks' High & Low Weather Summary

 TemperatureHumidityPressure
High75 °F (Jul 22, 12:52 PM)100% (Jul 14, 4:50 AM)30.09 "Hg (Jul 14, 4:50 AM)
Low52 °F (Jul 14, 4:50 AM)43% (Jul 18, 4:50 PM)29.36 "Hg (Jul 28, 5:20 AM)
Average63 °F72%29.82 "Hg
* Reported Jul 13 10:50 AM — Jul 28 10:50 AM, Flensburg, Weather by CustomWeather, © 2015

Note: Actual official high and low records may vary slightly from our data, if they occured in-between our weather recording intervals... More about our weather records

Advertising

Flensburg weather history for previous 24 hours

 ConditionsComfort  
Time TempWeatherWind HumidityBarometerVisibility
10:50 AM
Tue, Jul 28
61 °FBroken clouds.9 mph94%29.39 "HgN/A
9:51 AM61 °FScattered showers. Broken clouds.8 mph94%29.39 "Hg5 mi
8:50 AM61 °FBroken clouds.6 mph94%29.39 "Hg5 mi
7:50 AM59 °FBroken clouds.6 mph100%29.36 "HgN/A
6:50 AM59 °FBroken clouds.5 mph94%29.36 "HgN/A
6:20 AM59 °FPartly cloudy.5 mph94%29.36 "Hg5 mi
5:50 AM59 °FSprinkles. Passing clouds.5 mph94%29.36 "Hg3 mi
5:20 AM59 °FSprinkles. Passing clouds.6 mph94%29.36 "Hg2 mi
7:51 PM
Mon, Jul 27
61 °FRain showers. Broken clouds.8 mph94%29.42 "HgN/A
6:50 PM61 °FRain. Partly sunny.10 mph94%29.42 "Hg4 mi
5:50 PM61 °FBroken clouds.15 mph94%29.42 "HgN/A
4:51 PM61 °FPartly sunny.10 mph94%29.42 "HgN/A
3:50 PM59 °FDrizzle. Partly sunny.12 mph94%29.45 "Hg3 mi
2:50 PM61 °FPartly sunny.13 mph83%29.45 "HgN/A
1:51 PM61 °FPartly sunny.12 mph83%29.45 "HgN/A
12:50 PM59 °FSprinkles. Partly sunny.12 mph82%29.47 "HgN/A
Weather by CustomWeather, © 2015

See weather overviewHow to use our weather pages